Flag for U.S.A. Weather past 2 weeks in Pensacola, Florida, U.S.A.

Now
73 °F

Partly cloudy.


Feels Like: 71 °F
Forecast: 72 / 81 °F
Wind: 8 mph from Southeast

Location: Pensacola Regional Airport

Current Time: Apr 24, 2015 at 11:26:10 PM

Latest Report: Apr 24, 2015 at 9:53 PM


Visibility: 10 mi

Pressure: 29.91 "Hg

Humidity: 90%

Dew point: 70 °F

Location of PensacolaLocation

Historic Weather in Pensacola — Graph

°F

Pensacola temperature yesterday

Maximum temperature yesterday: 81 °F (at 11:53 AM)
Minimum temperature yesterday: 63 °F (at 5:53 AM)
Average temperature yesterday: 73 °F

Past Weeks' High & Low Weather Summary

 TemperatureHumidityPressure
High83 °F (Apr 22, 1:53 PM)100% (Apr 10, 8:53 PM)30.11 "Hg (Apr 10, 8:53 PM)
Low58 °F (Apr 21, 4:53 AM)32% (Apr 21, 2:53 PM)29.76 "Hg (Apr 19, 5:53 AM)
Average72 °F85%29.99 "Hg
* Reported Apr 9 9:53 PM — Apr 24 9:53 PM, Pensacola, Weather by CustomWeather, © 2015

Note: Actual official high and low records may vary slightly from our data, if they occured in-between our weather recording intervals... More about our weather records

Advertising

Pensacola weather history for previous 24 hours

 ConditionsComfort  
Time TempWeatherWind HumidityBarometerVisibility
9:53 PM
Fri, Apr 24
73 °FPartly cloudy.8 mph90%29.91 "Hg10 mi
8:53 PM73 °FClear.9 mph88%29.91 "Hg10 mi
7:53 PM73 °FClear.9 mph84%29.91 "Hg10 mi
6:53 PM73 °FSunny.13 mph78%29.90 "Hg10 mi
5:53 PM74 °FSunny.8 mph76%29.95 "Hg10 mi
4:53 PM75 °FSunny.15 mph69%29.93 "Hg10 mi
3:53 PM74 °FSunny.14 mph67%29.91 "Hg10 mi
2:53 PM78 °FSunny.12 mph52%29.96 "Hg10 mi
1:53 PM80 °FSunny.12 mph49%29.98 "Hg10 mi
12:53 PM77 °FSunny.14 mph52%30.01 "Hg10 mi
11:53 AM78 °FSunny.10 mph54%30.01 "Hg10 mi
10:53 AM77 °FSunny.7 mph54%30.03 "Hg10 mi
9:53 AM74 °FSunny.5 mph60%30.03 "Hg10 mi
8:53 AM71 °FSunny.7 mph63%30.01 "Hg10 mi
7:53 AM67 °FSunny.7 mph76%30.02 "Hg10 mi
6:53 AM65 °FSunny.5 mph78%30.01 "Hg10 mi
5:53 AM65 °FClear.6 mph81%29.98 "Hg10 mi
4:53 AM66 °FClear.6 mph78%29.96 "Hg10 mi
3:53 AM67 °FClear.5 mph76%29.94 "Hg10 mi
2:53 AM67 °FClear.6 mph79%29.95 "Hg10 mi
1:53 AM68 °FClear.6 mph76%29.96 "Hg10 mi
12:53 AM69 °FClear.6 mph73%29.98 "Hg10 mi
11:53 PM
Thu, Apr 23
70 °FClear.8 mph76%29.98 "Hg10 mi
Weather by CustomWeather, © 2015

See weather overviewHow to use our weather pages